Hlavní strana
METAR-TAF:

METAR-TAF

Letiště :

Effingham County Memorial Airport

Effingham, Illinois, Spojené státy americké

zeměpisná šířka: 39-04-14N, zeměpisná délka: 088-32-00W, výška: 179 m

Aktuální stav počasí

Zpráva byla vytvořena před 34 minutami, v 09:35 UTC
Jihovýchodní vítr 3 kt
Teplota 7°C
Vlhkost vzduchu 61%
Tlak 1014 hPa
Viditelnost: 8.0 km
Zataženo ve výšce 700 ft
déšť

METAR: K1H2 240935Z AUTO 14003KT 5SM RA OVC007 07/00 A2993 RMK AO2 T00650000

Čas: 04:09 (10:09 UTC)


TAF: chybějící

Stav a předpovědi počasí z více než 4 000 letišť (zprávy METAR a TAF).

Červené a žluté tečky na mapě představují dostupné meteorologické stanice.

Když kurzor umístíte na tečku, zobrazí se název stanice.

Pak kliknutím zobrazíte stav a předpověď počasí.

Chcete-li změnit mapu, kliknutím na zelené tlačítko se znaménkem +mapu přiblížíte, kliknutím na zelené tlačítko se znaménkem – mapu oddálíte a kliknutím na zelené šipky přejdete na sousední mapy.


METAR-TAF: